Theta_e
333 333 333 332 331 331 331 333 340 352 348 347 348 348 351 352 352 353 351 351 352 347
337 337 332 334 336 333 336 336 340 339 344 357 355 355 354 353 354 355 355 353 352 351
335 337 336 337 337 336 337 338 339 340 344 356 355 356 356 356 356 354 354 353 350 349
331 333 336 336 338 338 339 340 339 339 341 342 347 353 354 354 354 352 352 350 348 347
330 331 332 332 333 338 338 339 339 339 341 342 345 347 348 350 354 351 349 347 346 348
325 330 331 331 333 333 333 336 336 340 339 340 342 346 350 352 353 348 347 348 347 348
324 325 323 325 327 329 331 331 333 334 340 338 341 342 348 352 351 347 348 349 349 348
321 321 321 320 321 324 327 330 332 333 337 339 340 343 344 349 349 346 347 348 350 347
316 316 317 319 320 323 325 327 329 331 336 339 339 324 320 340 348 347 346 345 345 340
314 314 315 316 318 319 322 327 329 332 336 338 339 317 312 321 347 347 346 345 344 339
312 313 314 315 316 318 323 327 330 332 336 338 340 308 309 316 347 346 346 345 343 341
310 311 312 314 316 319 323 326 330 331 335 338 341 304 307 327 344 343 343 343 342 340
310 309 311 314 316 320 324 328 330 329 334 332 341 306 307 328 342 340 339 339 329 314
309 309 310 315 319 323 326 328 329 331 335 340 337 322 307 313 340 339 336 333 332 323
Wind_Speed
4 2 2 6 7 6 5 5 6 8 14 15 15 14 12 10 9 11 14 19 11 7
4 6 6 8 6 5 6 6 9 8 8 13 12 12 12 10 12 11 11 11 10 8
7 7 9 8 7 6 7 9 10 12 10 8 11 10 11 11 13 12 10 9 11 10
5 5 5 5 5 6 8 9 10 13 12 12 10 10 13 14 13 13 12 10 10 10
5 5 5 6 7 7 9 9 11 13 14 13 13 14 14 15 14 13 13 12 11 11
5 5 6 6 7 8 10 11 11 14 14 14 15 13 16 16 15 13 14 14 13 11
5 5 7 9 9 10 12 12 13 14 16 15 15 16 14 14 14 13 14 14 13 10
7 8 10 12 13 12 12 13 14 14 17 15 14 12 15 15 15 15 12 12 11 8
12 13 12 12 15 14 12 14 14 15 16 17 12 16 18 16 14 13 12 11 9 6
15 16 17 16 16 16 15 15 15 13 15 18 15 15 16 19 11 12 11 9 7 7
17 18 17 17 17 16 14 14 14 11 14 17 14 13 18 18 14 10 9 8 8 8
19 19 19 17 18 17 13 15 12 11 14 18 14 11 15 15 15 10 8 9 8 7
17 19 19 19 18 16 16 13 8 13 15 19 12 13 16 13 9 9 8 7 5 4
19 19 18 19 15 13 12 10 11 14 15 15 12 13 13 11 10 10 9 8 6 5
Wind_Direction
272 282 230 234 240 244 236 258 261 211 223 220 219 220 222 232 226 220 221 226 225 232
230 220 229 252 271 276 285 287 269 267 235 218 224 220 220 227 234 232 224 217 227 226
219 222 228 235 238 251 270 273 282 290 287 223 218 228 221 227 229 228 218 218 215 225
271 262 265 262 260 258 254 257 255 260 269 270 231 228 230 232 225 219 215 214 220 216
232 255 270 273 264 257 265 256 260 256 256 250 243 223 233 234 223 214 204 213 211 208
282 286 270 264 263 267 268 271 261 271 244 248 240 234 220 224 214 206 205 208 206 200
265 258 274 282 273 269 270 267 270 268 267 247 239 237 219 212 208 217 203 202 201 197
284 280 278 274 269 265 261 261 265 269 275 251 245 228 223 206 204 207 202 200 197 187
289 287 276 271 275 268 264 265 262 262 269 263 252 235 199 192 201 205 197 185 176 127
272 273 275 271 263 264 261 256 254 251 264 269 254 239 200 183 188 192 179 160 156 152
283 270 261 265 263 259 254 257 253 252 264 264 253 199 198 176 172 167 158 153 164 175
265 266 274 255 258 258 254 254 252 259 266 256 246 230 173 169 162 160 148 146 166 172
270 267 271 257 252 255 251 247 256 267 258 249 227 199 194 162 139 146 143 130 114 126
252 254 256 277 250 257 262 257 262 265 253 239 193 189 202 130 150 154 160 144 143 104